Akron, CO

12:44 PM MDT on September 26, 2017 (GMT -0600)
Akron-Washington County

Weather History for KAKO - January, 2013

Change the Weather History Date:

Tuesday, January 29, 2013

  Actual Average Record
Temperature  
Mean Temperature 20 °F 29 °F  
Max Temperature 28 °F 40 °F 63 °F (1976)
Min Temperature 12 °F 17 °F -15 °F (1949)
Degree Days  
Heating Degree Days 45    
Month to date heating degree days 1031  
Cooling Degree Days 0    
Month to date cooling degree days 0  
Moisture  
Dew Point 17 °F    
Average Humidity 75    
Maximum Humidity 92    
Minimum Humidity 58    
Precipitation  
Precipitation T in 0.01 in 0.65 in (1942)
Month to date precipitation 0.03 0.27  
Year to date precipitation 0.03 0.27  
Sea Level Pressure  
Sea Level Pressure 29.81 in    
Wind  
Wind Speed 12 mph (NNW)    
Max Wind Speed 23 mph    
Max Gust Speed 28 mph    
Visibility 8 miles    
Events Snow    
T = Trace of Precipitation, MM = Missing Value Source: NWS Daily Summary

Daily Weather History Graph

Daily Weather History Graph

Search for Another Location

Airport or City:

Trip Planner

Search our weather history database for the weather conditions in past years. The results will help you decide how hot, cold, wet, or windy it might be!

Date:

Astronomy

Jan. 29, 2013 Rise Set
Actual Time 7:04 AM MST 5:08 PM MST
Civil Twilight 6:35 AM MST 5:37 PM MST
Nautical Twilight 6:02 AM MST 6:09 PM MST
Astronomical Twilight 5:30 AM MST 6:41 PM MST
Moon 8:07 PM MST (1/29) 8:02 AM MST (1/29)
Length of Visible Light 11h 02m
Length of Day
10h 04m
Waning Gibbous, 93% of the Moon is Illuminated
Jan 29
Waning Gibbous
Feb 3
Last Quarter
Feb 10
New
Feb 17
First Quarter
Feb 25
Full

Hourly Weather History & Observations

Time (MST) Temp. Windchill Dew Point Humidity Pressure Visibility Wind Dir Wind Speed Gust Speed Precip Events Conditions
12:26 AM 26.6 °F 16.2 °F 24.8 °F 93% 29.70 in 3.0 mi NNW 11.5 mph - 0.00 in Snow Light Snow
12:34 AM 26.6 °F 17.5 °F 24.8 °F 93% 29.70 in 4.0 mi NNW 9.2 mph - 0.00 in Snow Light Snow
12:53 AM 26.1 °F 15.6 °F 25.0 °F 96% 29.72 in 7.0 mi NNW 11.5 mph - 0.00 in   Overcast
1:53 AM 27.0 °F 17.3 °F 25.0 °F 92% 29.76 in 9.0 mi NNW 10.4 mph - N/A   Overcast
2:03 AM 26.6 °F 16.8 °F 24.8 °F 93% 29.70 in 1.8 mi NNW 10.4 mph - N/A   Overcast
2:07 AM 26.6 °F 17.5 °F 24.8 °F 93% 29.69 in 1.0 mi NNW 9.2 mph - N/A   Overcast
2:17 AM 26.6 °F 16.8 °F 24.8 °F 93% 29.70 in 1.5 mi NNW 10.4 mph - N/A   Overcast
2:21 AM 26.6 °F 16.2 °F 24.8 °F 93% 29.70 in 4.0 mi NNW 11.5 mph - N/A   Overcast
2:50 AM 26.6 °F 16.8 °F 24.8 °F 93% 29.70 in 10.0 mi NNW 10.4 mph - N/A   Overcast
2:53 AM 26.1 °F 16.2 °F 24.1 °F 92% 29.77 in 10.0 mi NNW 10.4 mph - N/A   Overcast
3:53 AM 24.1 °F 14.4 °F 19.9 °F 84% 29.77 in 10.0 mi NW 9.2 mph - N/A   Overcast
4:53 AM 25.0 °F 12.2 °F 17.1 °F 72% 29.76 in 10.0 mi NNW 16.1 mph - N/A   Overcast
5:53 AM 24.1 °F 10.6 °F 14.0 °F 65% 29.75 in 10.0 mi NNW 17.3 mph - N/A   Overcast
6:53 AM 23.0 °F 10.6 °F 14.0 °F 68% 29.77 in 10.0 mi NNW 13.8 mph - N/A   Overcast
7:53 AM 21.9 °F 9.8 °F 12.0 °F 66% 29.79 in 10.0 mi North 12.7 mph - N/A   Overcast
8:53 AM 21.9 °F 12.5 °F 12.0 °F 66% 29.81 in 10.0 mi North 8.1 mph - N/A   Overcast
9:53 AM 21.9 °F 13.4 °F 12.0 °F 66% 29.81 in 10.0 mi NNW 6.9 mph - N/A   Overcast
10:53 AM 24.1 °F 11.5 °F 12.0 °F 60% 29.80 in 10.0 mi NW 15.0 mph - N/A   Overcast
11:53 AM 24.1 °F 12.0 °F 14.0 °F 65% 29.78 in 10.0 mi NNW 13.8 mph - N/A   Partly Cloudy
12:53 PM 26.1 °F 13.6 °F 16.0 °F 66% 29.75 in 10.0 mi North 16.1 mph - N/A   Clear
1:53 PM 27.0 °F 15.2 °F 17.1 °F 66% 29.74 in 10.0 mi North 15.0 mph - N/A   Clear
2:53 PM 28.0 °F 15.3 °F 16.0 °F 61% 29.77 in 10.0 mi North 18.4 mph - N/A   Clear
3:53 PM 26.1 °F 13.1 °F 15.1 °F 63% 29.82 in 10.0 mi North 17.3 mph - N/A   Clear
4:53 PM 21.9 °F 9.8 °F 14.0 °F 72% 29.86 in 10.0 mi NNW 12.7 mph - N/A   Clear
5:53 PM 18.0 °F 4.2 °F 12.0 °F 78% 29.91 in 10.0 mi NNW 13.8 mph - N/A   Clear
6:53 PM 18.0 °F 4.8 °F 12.0 °F 78% 29.94 in 10.0 mi NNW 12.7 mph - N/A   Clear
7:53 PM 14.0 °F 0.5 °F 10.0 °F 84% 29.98 in 10.0 mi NNW 11.5 mph - N/A   Clear
8:53 PM 14.0 °F 0.5 °F 10.0 °F 84% 30.01 in 10.0 mi NW 11.5 mph - N/A   Clear
9:53 PM 15.1 °F 1.8 °F 10.0 °F 80% 30.02 in 10.0 mi NW 11.5 mph - N/A   Clear
10:35 PM 14.0 °F 1.2 °F 10.4 °F 86% 29.86 in 10.0 mi NNW 10.4 mph - N/A   Mostly Cloudy
10:53 PM 17.1 °F 3.6 °F 14.0 °F 88% 30.01 in 10.0 mi NW 12.7 mph - N/A   Overcast
11:53 PM 17.1 °F 1.5 °F 12.9 °F 84% 30.02 in 10.0 mi NNW 17.3 mph - N/A   Partly Cloudy